Time,TemperatureF,DewpointF,PressureIn,WindDirection,WindDirectionDegrees,WindSpeedMPH,WindSpeedGustMPH,Humidity,HourlyPrecipIn,Conditions,Clouds,dailyrainin,SoftwareType,DateUTC
2015-03-05 00:03:00,-1.8,-6.7,30.55,NNW,330,0.9,1.0,79,0.00,,,0.00,meteobridge,2015-03-05 06:03:00,
2015-03-05 00:08:00,-1.8,-6.7,30.55,NNW,331,0.0,0.0,79,0.00,,,0.00,meteobridge,2015-03-05 06:08:00,
2015-03-05 00:13:00,-2.0,-6.7,30.55,NW,311,0.0,1.0,80,0.00,,,0.00,meteobridge,2015-03-05 06:13:00,
2015-03-05 00:18:00,-2.0,-6.7,30.55,NW,311,0.0,1.0,80,0.00,,,0.00,meteobridge,2015-03-05 06:18:00,
2015-03-05 00:23:00,-2.2,-6.9,30.55,NW,311,0.0,1.0,80,0.00,,,0.00,meteobridge,2015-03-05 06:23:00,
2015-03-05 00:28:00,-2.2,-6.5,30.55,NW,322,0.0,1.0,81,0.00,,,0.00,meteobridge,2015-03-05 06:28:00,
2015-03-05 00:33:00,-2.4,-7.1,30.55,NW,312,0.0,0.0,80,0.00,,,0.00,meteobridge,2015-03-05 06:33:00,
2015-03-05 00:38:00,-2.6,-7.2,30.55,NW,316,0.0,1.0,80,0.00,,,0.00,meteobridge,2015-03-05 06:38:00,
2015-03-05 00:43:00,-2.6,-7.2,30.55,NNW,330,0.0,1.0,80,0.00,,,0.00,meteobridge,2015-03-05 06:43:00,
2015-03-05 00:48:00,-2.6,-7.2,30.55,NW,313,0.0,1.0,80,0.00,,,0.00,meteobridge,2015-03-05 06:48:00,
2015-03-05 00:53:00,-2.6,-7.2,30.55,NW,322,0.0,1.0,80,0.00,,,0.00,meteobridge,2015-03-05 06:53:00,
2015-03-05 00:58:00,-2.6,-7.2,30.55,NW,319,0.0,2.0,80,0.00,,,0.00,meteobridge,2015-03-05 06:58:00,
2015-03-05 01:03:00,-2.6,-7.2,30.55,NNW,333,0.0,1.0,80,0.00,,,0.00,meteobridge,2015-03-05 07:03:00,
2015-03-05 01:08:00,-2.7,-7.4,30.55,NW,318,0.0,2.0,80,0.00,,,0.00,meteobridge,2015-03-05 07:08:00,
2015-03-05 01:13:00,-2.7,-7.4,30.55,NW,309,0.0,1.0,80,0.00,,,0.00,meteobridge,2015-03-05 07:13:00,
2015-03-05 01:18:00,-2.7,-7.4,30.55,WNW,295,0.9,1.0,80,0.00,,,0.00,meteobridge,2015-03-05 07:18:00,
2015-03-05 01:23:00,-2.7,-7.4,30.55,NW,305,0.9,1.0,80,0.00,,,0.00,meteobridge,2015-03-05 07:23:00,
2015-03-05 01:28:00,-2.7,-7.4,30.55,NNW,345,0.9,1.0,80,0.00,,,0.00,meteobridge,2015-03-05 07:28:00,
2015-03-05 01:33:00,-2.9,-7.6,30.55,NW,318,0.0,2.0,80,0.00,,,0.00,meteobridge,2015-03-05 07:33:00,
2015-03-05 01:38:00,-2.9,-7.6,30.55,NNW,336,2.0,2.0,80,0.00,,,0.00,meteobridge,2015-03-05 07:38:00,
2015-03-05 01:43:00,-3.1,-7.8,30.55,NNW,331,0.0,2.0,80,0.00,,,0.00,meteobridge,2015-03-05 07:43:00,
2015-03-05 01:48:00,-3.1,-7.8,30.56,NNW,329,0.0,1.0,80,0.00,,,0.00,meteobridge,2015-03-05 07:48:00,
2015-03-05 01:53:00,-3.3,-8.0,30.56,NNW,327,0.0,1.0,80,0.00,,,0.00,meteobridge,2015-03-05 07:53:00,
2015-03-05 01:58:00,-3.3,-8.0,30.56,NW,315,0.0,1.0,80,0.00,,,0.00,meteobridge,2015-03-05 07:58:00,
2015-03-05 02:03:00,-3.3,-8.0,30.55,NW,323,0.0,2.0,80,0.00,,,0.00,meteobridge,2015-03-05 08:03:00,
2015-03-05 02:08:00,-3.5,-8.1,30.55,NW,321,0.0,0.0,80,0.00,,,0.00,meteobridge,2015-03-05 08:08:00,
2015-03-05 02:14:00,-3.5,-8.1,30.55,NW,319,0.0,1.0,80,0.00,,,0.00,meteobridge,2015-03-05 08:14:00,
2015-03-05 02:19:00,-3.6,-8.3,30.56,NNW,333,0.0,0.0,80,0.00,,,0.00,meteobridge,2015-03-05 08:19:00,
2015-03-05 02:24:00,-3.8,-8.1,30.56,NW,320,0.0,1.0,81,0.00,,,0.00,meteobridge,2015-03-05 08:24:00,
2015-03-05 02:29:00,-3.8,-8.1,30.56,North,8,0.0,1.0,81,0.00,,,0.00,meteobridge,2015-03-05 08:29:00,
2015-03-05 02:34:00,-3.8,-8.1,30.56,NW,305,0.0,0.0,81,0.00,,,0.00,meteobridge,2015-03-05 08:34:00,
2015-03-05 02:39:00,-4.2,-8.5,30.56,West,273,0.0,1.0,81,0.00,,,0.00,meteobridge,2015-03-05 08:39:00,
2015-03-05 02:44:00,-4.4,-8.7,30.56,West,281,0.0,1.0,81,0.00,,,0.00,meteobridge,2015-03-05 08:44:00,
2015-03-05 02:49:00,-4.4,-8.7,30.56,NW,319,0.0,1.0,81,0.00,,,0.00,meteobridge,2015-03-05 08:49:00,
2015-03-05 02:54:00,-4.5,-8.9,30.56,WNW,300,0.0,0.0,81,0.00,,,0.00,meteobridge,2015-03-05 08:54:00,
2015-03-05 02:59:00,-4.7,-9.0,30.55,WNW,295,0.0,1.0,81,0.00,,,0.00,meteobridge,2015-03-05 08:59:00,
2015-03-05 03:04:00,-4.7,-9.0,30.55,West,281,0.0,1.0,81,0.00,,,0.00,meteobridge,2015-03-05 09:04:00,
2015-03-05 03:09:00,-4.9,-9.2,30.55,NNW,343,0.0,1.0,81,0.00,,,0.00,meteobridge,2015-03-05 09:09:00,
2015-03-05 03:14:00,-5.1,-9.2,30.55,NW,309,0.0,0.0,82,0.00,,,0.00,meteobridge,2015-03-05 09:14:00,
2015-03-05 03:19:00,-5.1,-9.2,30.55,NW,309,0.0,0.0,82,0.00,,,0.00,meteobridge,2015-03-05 09:19:00,
2015-03-05 03:24:00,-5.1,-9.2,30.55,WNW,285,0.0,1.0,82,0.00,,,0.00,meteobridge,2015-03-05 09:24:00,
2015-03-05 03:29:00,-5.1,-9.2,30.55,WNW,303,0.0,1.0,82,0.00,,,0.00,meteobridge,2015-03-05 09:29:00,
2015-03-05 03:34:00,-5.3,-9.6,30.55,WNW,282,0.0,1.0,81,0.00,,,0.00,meteobridge,2015-03-05 09:34:00,
2015-03-05 03:39:00,-5.4,-9.8,30.55,WNW,290,0.0,0.0,81,0.00,,,0.00,meteobridge,2015-03-05 09:39:00,
2015-03-05 03:44:00,-5.6,-9.8,30.55,WNW,293,0.0,1.0,82,0.00,,,0.00,meteobridge,2015-03-05 09:44:00,
2015-03-05 03:49:00,-5.6,-9.8,30.55,NW,316,0.0,1.0,82,0.00,,,0.00,meteobridge,2015-03-05 09:49:00,
2015-03-05 03:54:00,-5.6,-9.8,30.55,NW,316,0.0,0.0,82,0.00,,,0.00,meteobridge,2015-03-05 09:54:00,
2015-03-05 03:59:00,-5.8,-9.9,30.55,NW,322,0.0,0.0,82,0.00,,,0.00,meteobridge,2015-03-05 09:59:00,
2015-03-05 04:05:00,-6.0,-10.1,30.55,WNW,297,0.0,0.0,82,0.00,,,0.00,meteobridge,2015-03-05 10:05:00,
2015-03-05 04:10:00,-6.0,-10.1,30.55,WNW,296,0.0,0.0,82,0.00,,,0.00,meteobridge,2015-03-05 10:10:00,
2015-03-05 04:15:00,-6.0,-10.1,30.55,WNW,285,0.0,0.0,82,0.00,,,0.00,meteobridge,2015-03-05 10:15:00,
2015-03-05 04:20:00,-6.2,-10.3,30.56,West,281,0.0,0.0,82,0.00,,,0.00,meteobridge,2015-03-05 10:20:00,
2015-03-05 04:25:00,-6.3,-10.3,30.55,West,281,0.0,0.0,82,0.00,,,0.00,meteobridge,2015-03-05 10:25:00,
2015-03-05 04:30:00,-6.5,-10.5,30.56,WNW,283,0.0,0.0,82,0.00,,,0.00,meteobridge,2015-03-05 10:30:00,
2015-03-05 04:35:00,-6.5,-10.3,30.56,WNW,291,0.0,0.0,83,0.00,,,0.00,meteobridge,2015-03-05 10:35:00,
2015-03-05 04:40:00,-6.5,-10.3,30.56,WNW,291,0.0,0.0,83,0.00,,,0.00,meteobridge,2015-03-05 10:40:00,
2015-03-05 04:45:00,-6.5,-10.3,30.56,WNW,291,0.0,0.0,83,0.00,,,0.00,meteobridge,2015-03-05 10:45:00,
2015-03-05 04:50:00,-6.5,-10.3,30.56,WNW,291,0.0,0.0,83,0.00,,,0.00,meteobridge,2015-03-05 10:50:00,
2015-03-05 04:55:00,-6.5,-10.3,30.57,WNW,291,0.0,0.0,83,0.00,,,0.00,meteobridge,2015-03-05 10:55:00,
2015-03-05 05:00:00,-6.5,-10.3,30.57,WNW,289,0.0,0.0,83,0.00,,,0.00,meteobridge,2015-03-05 11:00:00,
2015-03-05 05:05:00,-6.5,-10.3,30.57,WNW,289,0.0,0.0,83,0.00,,,0.00,meteobridge,2015-03-05 11:05:00,
2015-03-05 05:10:00,-6.5,-10.3,30.58,WNW,289,0.0,0.0,83,0.00,,,0.00,meteobridge,2015-03-05 11:10:00,
2015-03-05 05:15:00,-6.9,-10.7,30.58,WNW,285,0.0,0.0,83,0.00,,,0.00,meteobridge,2015-03-05 11:15:00,
2015-03-05 05:20:00,-6.9,-10.7,30.58,WNW,285,0.0,0.0,83,0.00,,,0.00,meteobridge,2015-03-05 11:20:00,
2015-03-05 05:25:00,-7.1,-10.8,30.58,WNW,285,0.0,0.0,83,0.00,,,0.00,meteobridge,2015-03-05 11:25:00,
2015-03-05 05:30:00,-7.1,-10.8,30.58,WNW,285,0.0,0.0,83,0.00,,,0.00,meteobridge,2015-03-05 11:30:00,
2015-03-05 05:35:00,-7.1,-10.8,30.58,WNW,285,0.0,0.0,83,0.00,,,0.00,meteobridge,2015-03-05 11:35:00,
2015-03-05 05:40:00,-7.1,-10.7,30.58,WNW,285,0.0,0.0,84,0.00,,,0.00,meteobridge,2015-03-05 11:40:00,
2015-03-05 05:45:00,-7.2,-11.0,30.59,WNW,285,0.0,0.0,83,0.00,,,0.00,meteobridge,2015-03-05 11:45:00,
2015-03-05 05:50:00,-7.2,-10.8,30.59,WNW,285,0.0,0.0,84,0.00,,,0.00,meteobridge,2015-03-05 11:50:00,
2015-03-05 05:55:00,-7.4,-11.2,30.60,WNW,285,0.0,0.0,83,0.00,,,0.00,meteobridge,2015-03-05 11:55:00,
2015-03-05 06:00:00,-7.6,-11.4,30.59,WNW,285,0.0,0.0,83,0.00,,,0.00,meteobridge,2015-03-05 12:00:00,
2015-03-05 06:05:00,-7.8,-11.4,30.59,WNW,285,0.0,0.0,84,0.00,,,0.00,meteobridge,2015-03-05 12:05:00,
2015-03-05 06:10:00,-7.8,-11.4,30.60,WNW,285,0.0,0.0,84,0.00,,,0.00,meteobridge,2015-03-05 12:10:00,
2015-03-05 06:15:00,-7.6,-11.2,30.60,WNW,285,0.0,0.0,84,0.00,,,0.00,meteobridge,2015-03-05 12:15:00,
2015-03-05 06:20:00,-7.4,-11.0,30.60,WNW,285,0.0,0.0,84,0.00,,,0.00,meteobridge,2015-03-05 12:20:00,
2015-03-05 06:25:00,-7.4,-11.0,30.60,WNW,285,0.0,0.0,84,0.00,,,0.00,meteobridge,2015-03-05 12:25:00,
2015-03-05 06:30:00,-7.4,-11.0,30.60,WNW,285,0.0,0.0,84,0.00,,,0.00,meteobridge,2015-03-05 12:30:00,
2015-03-05 06:35:00,-7.4,-11.0,30.60,WNW,285,0.0,0.0,84,0.00,,,0.00,meteobridge,2015-03-05 12:35:00,
2015-03-05 06:40:00,-7.4,-11.0,30.60,WNW,285,0.0,0.0,84,0.00,,,0.00,meteobridge,2015-03-05 12:40:00,
2015-03-05 06:45:00,-7.4,-11.0,30.60,WNW,285,0.0,0.0,84,0.00,,,0.00,meteobridge,2015-03-05 12:45:00,
2015-03-05 06:51:00,-7.4,-11.0,30.60,WNW,285,0.0,0.0,84,0.00,,,0.00,meteobridge,2015-03-05 12:51:00,
2015-03-05 06:56:00,-7.6,-11.2,30.61,WNW,285,0.0,0.0,84,0.00,,,0.00,meteobridge,2015-03-05 12:56:00,
2015-03-05 07:01:00,-7.4,-11.0,30.61,WNW,285,0.0,0.0,84,0.00,,,0.00,meteobridge,2015-03-05 13:01:00,
2015-03-05 07:06:00,-7.2,-10.8,30.61,WNW,285,0.0,0.0,84,0.00,,,0.00,meteobridge,2015-03-05 13:06:00,
2015-03-05 07:11:00,-7.1,-10.7,30.61,WNW,285,0.0,0.0,84,0.00,,,0.00,meteobridge,2015-03-05 13:11:00,
2015-03-05 07:16:00,-7.1,-10.7,30.61,WNW,285,0.0,0.0,84,0.00,,,0.00,meteobridge,2015-03-05 13:16:00,
2015-03-05 07:21:00,-6.5,-10.1,30.61,WNW,285,0.0,0.0,84,0.00,,,0.00,meteobridge,2015-03-05 13:21:00,
2015-03-05 07:26:00,-6.3,-9.9,30.62,West,265,0.0,0.0,84,0.00,,,0.00,meteobridge,2015-03-05 13:26:00,
2015-03-05 07:31:00,-5.8,-9.6,30.62,West,266,0.0,0.0,83,0.00,,,0.00,meteobridge,2015-03-05 13:31:00,
2015-03-05 07:36:00,-5.4,-9.2,30.62,West,274,0.0,0.0,83,0.00,,,0.00,meteobridge,2015-03-05 13:36:00,
2015-03-05 07:41:00,-4.7,-8.9,30.63,WNW,288,0.9,2.0,82,0.00,,,0.00,meteobridge,2015-03-05 13:41:00,
2015-03-05 07:46:00,-4.4,-8.5,30.63,NW,319,0.0,1.0,82,0.00,,,0.00,meteobridge,2015-03-05 13:46:00,
2015-03-05 07:51:00,-3.8,-8.1,30.63,WNW,302,0.0,1.0,81,0.00,,,0.00,meteobridge,2015-03-05 13:51:00,
2015-03-05 07:56:00,-3.5,-8.1,30.63,NNW,345,0.0,1.0,80,0.00,,,0.00,meteobridge,2015-03-05 13:56:00,
2015-03-05 08:01:00,-3.3,-8.1,30.64,NW,314,0.9,3.0,79,0.00,,,0.00,meteobridge,2015-03-05 14:01:00,
2015-03-05 08:06:00,-2.7,-7.6,30.64,NW,307,0.0,5.0,79,0.00,,,0.00,meteobridge,2015-03-05 14:06:00,
2015-03-05 08:11:00,-2.6,-7.8,30.64,West,279,0.0,2.0,78,0.00,,,0.00,meteobridge,2015-03-05 14:11:00,
2015-03-05 08:16:00,-2.2,-7.4,30.64,North,349,2.0,2.0,78,0.00,,,0.00,meteobridge,2015-03-05 14:16:00,
2015-03-05 08:21:00,-2.0,-7.4,30.64,WNW,283,0.9,3.0,77,0.00,,,0.00,meteobridge,2015-03-05 14:21:00,
2015-03-05 08:26:00,-1.7,-7.1,30.65,NNW,342,0.9,3.0,77,0.00,,,0.00,meteobridge,2015-03-05 14:26:00,
2015-03-05 08:31:00,-1.5,-6.9,30.65,NNE,14,4.0,4.0,77,0.00,,,0.00,meteobridge,2015-03-05 14:31:00,
2015-03-05 08:36:00,-1.1,-6.5,30.65,NW,320,0.0,5.0,77,0.00,,,0.00,meteobridge,2015-03-05 14:36:00,
2015-03-05 08:41:00,-0.8,-6.2,30.65,West,266,0.0,2.0,77,0.00,,,0.00,meteobridge,2015-03-05 14:41:00,
2015-03-05 08:46:00,-0.2,-6.0,30.65,NNW,329,0.0,2.0,76,0.00,,,0.00,meteobridge,2015-03-05 14:46:00,
2015-03-05 08:51:00,0.0,-5.8,30.65,NW,310,0.9,1.0,76,0.00,,,0.00,meteobridge,2015-03-05 14:51:00,
2015-03-05 08:56:00,0.3,-5.4,30.65,West,265,0.0,1.0,76,0.00,,,0.00,meteobridge,2015-03-05 14:56:00,
2015-03-05 09:01:00,0.7,-5.4,30.65,NW,323,2.0,3.0,75,0.00,,,0.00,meteobridge,2015-03-05 15:01:00,
2015-03-05 09:07:00,0.7,-5.4,30.66,WSW,258,0.0,3.0,75,0.00,,,0.00,meteobridge,2015-03-05 15:07:00,
2015-03-05 09:12:00,1.0,-5.1,30.66,NNW,342,0.9,2.0,75,0.00,,,0.00,meteobridge,2015-03-05 15:12:00,
2015-03-05 09:17:00,1.2,-4.9,30.66,NNW,335,2.0,3.0,75,0.00,,,0.00,meteobridge,2015-03-05 15:17:00,
2015-03-05 09:22:00,1.6,-4.5,30.66,NNW,330,2.9,3.0,75,0.00,,,0.00,meteobridge,2015-03-05 15:22:00,
2015-03-05 09:27:00,1.9,-3.8,30.66,West,269,2.0,2.0,76,0.00,,,0.00,meteobridge,2015-03-05 15:27:00,
2015-03-05 09:32:00,2.5,-3.8,30.65,NW,310,2.0,4.0,74,0.00,,,0.00,meteobridge,2015-03-05 15:32:00,
2015-03-05 09:37:00,2.8,-3.6,30.65,NNW,330,0.9,5.0,74,0.00,,,0.00,meteobridge,2015-03-05 15:37:00,
2015-03-05 09:42:00,2.8,-3.3,30.66,WNW,287,2.0,3.0,75,0.00,,,0.00,meteobridge,2015-03-05 15:42:00,
2015-03-05 09:47:00,3.2,-3.3,30.66,WSW,243,0.9,3.0,74,0.00,,,0.00,meteobridge,2015-03-05 15:47:00,
2015-03-05 09:52:00,3.4,-3.6,30.66,WNW,283,2.0,3.0,72,0.00,,,0.00,meteobridge,2015-03-05 15:52:00,
2015-03-05 09:57:00,3.4,-3.8,30.66,WSW,256,0.9,5.0,71,0.00,,,0.00,meteobridge,2015-03-05 15:57:00,
2015-03-05 10:02:00,3.7,-2.9,30.66,NNW,342,0.9,3.0,73,0.00,,,0.00,meteobridge,2015-03-05 16:02:00,
2015-03-05 10:07:00,4.3,-3.3,30.65,NW,319,2.0,3.0,70,0.00,,,0.00,meteobridge,2015-03-05 16:07:00,
2015-03-05 10:12:00,4.6,-2.9,30.65,West,275,2.0,3.0,70,0.00,,,0.00,meteobridge,2015-03-05 16:12:00,
2015-03-05 10:17:00,4.6,-3.3,30.65,WSW,254,2.0,4.0,69,0.00,,,0.00,meteobridge,2015-03-05 16:17:00,
2015-03-05 10:22:00,4.8,-3.6,30.65,SW,223,2.0,7.0,67,0.00,,,0.00,meteobridge,2015-03-05 16:22:00,
2015-03-05 10:27:00,5.2,-3.1,30.65,WSW,244,2.0,4.0,68,0.00,,,0.00,meteobridge,2015-03-05 16:27:00,
2015-03-05 10:32:00,5.4,-2.9,30.65,West,276,2.0,6.0,68,0.00,,,0.00,meteobridge,2015-03-05 16:32:00,
2015-03-05 10:37:00,5.4,-3.8,30.65,West,276,0.9,5.0,65,0.00,,,0.00,meteobridge,2015-03-05 16:37:00,
2015-03-05 10:42:00,5.7,-2.9,30.65,West,277,2.9,3.0,67,0.00,,,0.00,meteobridge,2015-03-05 16:42:00,
2015-03-05 10:47:00,6.1,-2.6,30.65,SW,236,4.0,6.0,67,0.00,,,0.00,meteobridge,2015-03-05 16:47:00,
2015-03-05 10:52:00,6.4,-1.8,30.65,West,271,2.9,6.0,68,0.00,,,0.00,meteobridge,2015-03-05 16:52:00,
2015-03-05 10:57:00,6.4,-2.6,30.64,West,277,4.0,5.0,66,0.00,,,0.00,meteobridge,2015-03-05 16:57:00,
2015-03-05 11:02:00,6.4,-3.1,30.64,WNW,283,2.9,4.0,64,0.00,,,0.00,meteobridge,2015-03-05 17:02:00,
2015-03-05 11:07:00,6.6,-2.9,30.64,WSW,255,0.9,5.0,64,0.00,,,0.00,meteobridge,2015-03-05 17:07:00,
2015-03-05 11:12:00,7.2,-1.5,30.65,South,191,2.0,4.0,67,0.00,,,0.00,meteobridge,2015-03-05 17:12:00,
2015-03-05 11:17:00,7.5,-1.8,30.64,WNW,282,0.9,3.0,65,0.00,,,0.00,meteobridge,2015-03-05 17:17:00,
2015-03-05 11:23:00,8.4,-0.6,30.64,South,191,4.0,7.0,66,0.00,,,0.00,meteobridge,2015-03-05 17:23:00,
2015-03-05 11:28:00,8.6,-1.1,30.64,SW,230,6.9,9.0,64,0.00,,,0.00,meteobridge,2015-03-05 17:28:00,
2015-03-05 11:33:00,8.2,-1.5,30.64,SW,219,0.9,6.0,64,0.00,,,0.00,meteobridge,2015-03-05 17:33:00,
2015-03-05 11:38:00,8.8,-0.6,30.64,SW,225,2.9,4.0,65,0.00,,,0.00,meteobridge,2015-03-05 17:38:00,
2015-03-05 11:43:00,9.0,-1.1,30.64,WSW,238,6.0,6.0,63,0.00,,,0.00,meteobridge,2015-03-05 17:43:00,
2015-03-05 11:48:00,9.3,-0.8,30.63,SW,235,4.9,8.0,63,0.00,,,0.00,meteobridge,2015-03-05 17:48:00,
2015-03-05 11:53:00,9.7,-0.8,30.63,West,263,0.9,6.0,62,0.00,,,0.00,meteobridge,2015-03-05 17:53:00,
2015-03-05 11:58:00,9.9,0.1,30.63,SSW,207,0.9,4.0,64,0.00,,,0.00,meteobridge,2015-03-05 17:58:00,
2015-03-05 12:03:00,10.2,0.5,30.63,NW,308,2.9,9.0,64,0.00,,,0.00,meteobridge,2015-03-05 18:03:00,
2015-03-05 12:08:00,10.6,1.4,30.63,WSW,246,4.0,5.0,66,0.00,,,0.00,meteobridge,2015-03-05 18:08:00,
2015-03-05 12:13:00,10.2,0.1,30.63,West,280,2.9,5.0,63,0.00,,,0.00,meteobridge,2015-03-05 18:13:00,
2015-03-05 12:18:00,10.2,0.5,30.63,WSW,252,4.9,10.0,64,0.00,,,0.00,meteobridge,2015-03-05 18:18:00,
2015-03-05 12:23:00,10.2,0.5,30.62,West,260,4.9,6.0,64,0.00,,,0.00,meteobridge,2015-03-05 18:23:00,
2015-03-05 12:28:00,10.9,1.8,30.62,West,262,2.9,6.0,66,0.00,,,0.00,meteobridge,2015-03-05 18:28:00,
2015-03-05 12:33:00,10.9,1.2,30.63,WSW,238,2.9,6.0,64,0.00,,,0.00,meteobridge,2015-03-05 18:33:00,
2015-03-05 12:38:00,11.1,1.6,30.62,SSW,207,6.0,8.0,65,0.00,,,0.00,meteobridge,2015-03-05 18:38:00,
2015-03-05 12:43:00,11.3,2.1,30.62,SSW,200,10.1,15.0,66,0.00,,,0.00,meteobridge,2015-03-05 18:43:00,
2015-03-05 12:48:00,11.5,1.9,30.62,SW,215,4.0,5.0,65,0.00,,,0.00,meteobridge,2015-03-05 18:48:00,
2015-03-05 12:53:00,11.5,1.9,30.62,SW,216,6.0,12.0,65,0.00,,,0.00,meteobridge,2015-03-05 18:53:00,
2015-03-05 12:58:00,11.5,1.9,30.62,West,281,2.9,11.0,65,0.00,,,0.00,meteobridge,2015-03-05 18:58:00,
2015-03-05 13:03:00,12.0,2.5,30.61,South,189,6.0,6.0,65,0.00,,,0.00,meteobridge,2015-03-05 19:03:00,
2015-03-05 13:08:00,12.0,2.5,30.61,WNW,283,2.9,7.0,65,0.00,,,0.00,meteobridge,2015-03-05 19:08:00,
2015-03-05 13:13:00,12.2,2.7,30.61,SSE,167,4.9,7.0,65,0.00,,,0.00,meteobridge,2015-03-05 19:13:00,
2015-03-05 13:18:00,12.6,3.0,30.60,WSW,249,6.0,12.0,65,0.00,,,0.00,meteobridge,2015-03-05 19:18:00,
2015-03-05 13:23:00,12.2,2.3,30.60,SSE,160,4.9,6.0,64,0.00,,,0.00,meteobridge,2015-03-05 19:23:00,
2015-03-05 13:28:00,12.6,3.4,30.60,SSW,199,4.9,6.0,66,0.00,,,0.00,meteobridge,2015-03-05 19:28:00,
2015-03-05 13:33:00,12.7,3.6,30.59,SSW,198,2.0,6.0,66,0.00,,,0.00,meteobridge,2015-03-05 19:33:00,
2015-03-05 13:38:00,13.3,3.7,30.59,South,172,2.0,6.0,65,0.00,,,0.00,meteobridge,2015-03-05 19:38:00,
2015-03-05 13:43:00,12.9,3.4,30.59,SW,231,2.9,9.0,65,0.00,,,0.00,meteobridge,2015-03-05 19:43:00,
2015-03-05 13:48:00,13.1,3.6,30.59,ESE,113,0.0,3.0,65,0.00,,,0.00,meteobridge,2015-03-05 19:48:00,
2015-03-05 13:53:00,13.6,3.7,30.58,SSW,207,4.9,10.0,64,0.00,,,0.00,meteobridge,2015-03-05 19:53:00,
2015-03-05 13:58:00,13.5,3.9,30.59,SSW,200,6.0,11.0,65,0.00,,,0.00,meteobridge,2015-03-05 19:58:00,
2015-03-05 14:03:00,13.6,3.7,30.58,SW,230,2.9,6.0,64,0.00,,,0.00,meteobridge,2015-03-05 20:03:00,
2015-03-05 14:09:00,13.8,3.9,30.58,SW,230,4.0,8.0,64,0.00,,,0.00,meteobridge,2015-03-05 20:09:00,
2015-03-05 14:14:00,14.4,4.8,30.58,WSW,245,6.0,8.0,65,0.00,,,0.00,meteobridge,2015-03-05 20:14:00,
2015-03-05 14:19:00,14.2,3.9,30.58,SSW,199,4.9,5.0,63,0.00,,,0.00,meteobridge,2015-03-05 20:19:00,
2015-03-05 14:24:00,14.4,4.5,30.58,West,278,2.0,5.0,64,0.00,,,0.00,meteobridge,2015-03-05 20:24:00,
2015-03-05 14:29:00,14.4,4.1,30.58,SW,231,2.0,6.0,63,0.00,,,0.00,meteobridge,2015-03-05 20:29:00,
2015-03-05 14:34:00,14.5,4.6,30.58,WSW,240,4.9,8.0,64,0.00,,,0.00,meteobridge,2015-03-05 20:34:00,
2015-03-05 14:39:00,14.5,4.3,30.57,SSW,207,2.0,6.0,63,0.00,,,0.00,meteobridge,2015-03-05 20:39:00,
2015-03-05 14:44:00,14.5,3.9,30.57,SW,226,4.0,7.0,62,0.00,,,0.00,meteobridge,2015-03-05 20:44:00,
2015-03-05 14:49:00,14.9,5.0,30.57,WSW,238,4.9,7.0,64,0.00,,,0.00,meteobridge,2015-03-05 20:49:00,
2015-03-05 14:54:00,15.1,5.2,30.57,SSE,157,2.0,5.0,64,0.00,,,0.00,meteobridge,2015-03-05 20:54:00,
2015-03-05 14:59:00,15.4,5.7,30.57,West,275,4.0,6.0,65,0.00,,,0.00,meteobridge,2015-03-05 20:59:00,
2015-03-05 15:04:00,15.3,5.5,30.56,SW,234,4.9,5.0,65,0.00,,,0.00,meteobridge,2015-03-05 21:04:00,
2015-03-05 15:09:00,15.6,5.5,30.57,SSE,148,2.0,7.0,64,0.00,,,0.00,meteobridge,2015-03-05 21:09:00,
2015-03-05 15:14:00,16.0,5.9,30.56,WSW,240,4.9,7.0,64,0.00,,,0.00,meteobridge,2015-03-05 21:14:00,
2015-03-05 15:19:00,16.2,6.1,30.56,SW,217,4.0,9.0,64,0.00,,,0.00,meteobridge,2015-03-05 21:19:00,
2015-03-05 15:24:00,16.0,5.5,30.56,SW,214,4.9,7.0,63,0.00,,,0.00,meteobridge,2015-03-05 21:24:00,
2015-03-05 15:29:00,15.8,5.4,30.56,SSW,204,6.0,9.0,63,0.00,,,0.00,meteobridge,2015-03-05 21:29:00,
2015-03-05 15:34:00,16.2,6.1,30.56,SW,220,6.0,9.0,64,0.00,,,0.00,meteobridge,2015-03-05 21:34:00,
2015-03-05 15:39:00,16.2,5.7,30.56,SSW,204,4.9,8.0,63,0.00,,,0.00,meteobridge,2015-03-05 21:39:00,
2015-03-05 15:44:00,16.2,5.7,30.55,SW,231,6.0,7.0,63,0.00,,,0.00,meteobridge,2015-03-05 21:44:00,
2015-03-05 15:49:00,16.5,5.7,30.55,SSW,205,4.9,7.0,62,0.00,,,0.00,meteobridge,2015-03-05 21:49:00,
2015-03-05 15:54:00,16.3,5.5,30.55,West,262,2.0,4.0,62,0.00,,,0.00,meteobridge,2015-03-05 21:54:00,
2015-03-05 15:59:00,16.5,5.7,30.55,SW,228,6.9,7.0,62,0.00,,,0.00,meteobridge,2015-03-05 21:59:00,
2015-03-05 16:04:00,16.5,6.1,30.55,SW,233,8.9,12.0,63,0.00,,,0.00,meteobridge,2015-03-05 22:04:00,
2015-03-05 16:09:00,16.5,6.1,30.55,SW,236,2.9,8.0,63,0.00,,,0.00,meteobridge,2015-03-05 22:09:00,
2015-03-05 16:14:00,16.9,6.8,30.55,SW,222,2.9,7.0,64,0.00,,,0.00,meteobridge,2015-03-05 22:14:00,
2015-03-05 16:19:00,16.9,6.4,30.55,WSW,248,2.0,6.0,63,0.00,,,0.00,meteobridge,2015-03-05 22:19:00,
2015-03-05 16:24:00,16.9,6.1,30.55,SSE,150,6.0,8.0,62,0.00,,,0.00,meteobridge,2015-03-05 22:24:00,
2015-03-05 16:29:00,16.9,6.1,30.55,SW,224,2.9,7.0,62,0.00,,,0.00,meteobridge,2015-03-05 22:29:00,
2015-03-05 16:34:00,16.7,5.9,30.55,SSW,203,6.0,9.0,62,0.00,,,0.00,meteobridge,2015-03-05 22:34:00,
2015-03-05 16:39:00,16.9,6.8,30.55,SW,221,2.0,5.0,64,0.00,,,0.00,meteobridge,2015-03-05 22:39:00,
2015-03-05 16:44:00,16.9,6.8,30.55,SW,235,2.9,10.0,64,0.00,,,0.00,meteobridge,2015-03-05 22:44:00,
2015-03-05 16:49:00,16.7,6.6,30.55,SW,217,2.0,5.0,64,0.00,,,0.00,meteobridge,2015-03-05 22:49:00,
2015-03-05 16:54:00,16.5,6.8,30.55,South,170,0.9,6.0,65,0.00,,,0.00,meteobridge,2015-03-05 22:54:00,
2015-03-05 17:00:00,16.5,7.2,30.55,SW,217,2.0,6.0,66,0.00,,,0.00,meteobridge,2015-03-05 23:00:00,
2015-03-05 17:05:00,16.2,6.4,30.55,SW,226,0.0,4.0,65,0.00,,,0.00,meteobridge,2015-03-05 23:05:00,
2015-03-05 17:10:00,16.2,6.8,30.55,SSE,162,2.0,5.0,66,0.00,,,0.00,meteobridge,2015-03-05 23:10:00,
2015-03-05 17:15:00,16.0,6.6,30.55,SE,128,0.9,7.0,66,0.00,,,0.00,meteobridge,2015-03-05 23:15:00,
2015-03-05 17:19:00,15.8,6.4,30.55,SE,136,2.0,6.0,66,0.00,,,0.00,meteobridge,2015-03-05 23:19:00,
2015-03-05 17:25:00,15.6,6.6,30.54,South,181,0.9,5.0,67,0.00,,,0.00,meteobridge,2015-03-05 23:25:00,
2015-03-05 17:30:00,15.4,6.4,30.55,ESE,117,2.0,6.0,67,0.00,,,0.00,meteobridge,2015-03-05 23:30:00,
2015-03-05 17:35:00,15.3,6.6,30.55,South,188,4.0,9.0,68,0.00,,,0.00,meteobridge,2015-03-05 23:35:00,
2015-03-05 17:40:00,15.1,6.4,30.55,SSW,195,0.9,4.0,68,0.00,,,0.00,meteobridge,2015-03-05 23:40:00,
2015-03-05 17:45:00,15.1,6.8,30.54,SE,136,2.9,7.0,69,0.00,,,0.00,meteobridge,2015-03-05 23:45:00,
2015-03-05 17:50:00,14.7,6.8,30.54,South,186,0.0,5.0,70,0.00,,,0.00,meteobridge,2015-03-05 23:50:00,
2015-03-05 17:55:00,14.7,6.8,30.54,SSW,205,2.9,6.0,70,0.00,,,0.00,meteobridge,2015-03-05 23:55:00,
2015-03-05 18:00:00,14.4,6.6,30.54,SSE,158,0.0,3.0,71,0.00,,,0.00,meteobridge,2015-03-06 00:00:00,
2015-03-05 18:05:00,14.2,6.8,30.54,SSE,158,2.0,6.0,72,0.00,,,0.00,meteobridge,2015-03-06 00:05:00,
2015-03-05 18:10:00,13.8,6.4,30.54,SSW,213,4.0,4.0,72,0.00,,,0.00,meteobridge,2015-03-06 00:10:00,
2015-03-05 18:15:00,13.6,6.6,30.55,SSE,155,0.0,4.0,73,0.00,,,0.00,meteobridge,2015-03-06 00:15:00,
2015-03-05 18:20:00,13.5,6.8,30.54,SSW,197,0.9,2.0,74,0.00,,,0.00,meteobridge,2015-03-06 00:20:00,
2015-03-05 18:25:00,13.3,6.6,30.55,SSW,196,2.0,5.0,74,0.00,,,0.00,meteobridge,2015-03-06 00:25:00,
2015-03-05 18:30:00,13.1,6.4,30.54,SW,228,0.9,3.0,74,0.00,,,0.00,meteobridge,2015-03-06 00:30:00,
2015-03-05 18:35:00,12.7,6.1,30.54,SSE,147,0.0,2.0,74,0.00,,,0.00,meteobridge,2015-03-06 00:35:00,
2015-03-05 18:40:00,12.6,6.1,30.54,SW,218,0.0,1.0,75,0.00,,,0.00,meteobridge,2015-03-06 00:40:00,
2015-03-05 18:45:00,12.4,6.3,30.54,South,179,0.9,3.0,76,0.00,,,0.00,meteobridge,2015-03-06 00:45:00,
2015-03-05 18:50:00,12.4,6.3,30.54,SE,133,0.9,4.0,76,0.00,,,0.00,meteobridge,2015-03-06 00:50:00,
2015-03-05 18:55:00,12.4,6.6,30.54,SE,140,0.9,5.0,77,0.00,,,0.00,meteobridge,2015-03-06 00:55:00,
2015-03-05 19:00:00,12.2,6.4,30.54,SE,127,0.0,2.0,77,0.00,,,0.00,meteobridge,2015-03-06 01:00:00,
2015-03-05 19:05:00,11.8,6.3,30.54,ESE,120,0.9,4.0,78,0.00,,,0.00,meteobridge,2015-03-06 01:05:00,
2015-03-05 19:10:00,11.8,6.3,30.54,SE,127,0.0,7.0,78,0.00,,,0.00,meteobridge,2015-03-06 01:10:00,
2015-03-05 19:15:00,11.7,6.1,30.54,ESE,116,0.0,2.0,78,0.00,,,0.00,meteobridge,2015-03-06 01:15:00,
2015-03-05 19:20:00,11.5,6.3,30.54,ESE,110,2.9,3.0,79,0.00,,,0.00,meteobridge,2015-03-06 01:20:00,
2015-03-05 19:25:00,11.5,6.3,30.54,SE,143,0.9,3.0,79,0.00,,,0.00,meteobridge,2015-03-06 01:25:00,
2015-03-05 19:30:00,11.1,5.9,30.54,SSE,153,0.0,3.0,79,0.00,,,0.00,meteobridge,2015-03-06 01:30:00,
2015-03-05 19:35:00,10.8,5.9,30.53,SE,128,0.9,2.0,80,0.00,,,0.00,meteobridge,2015-03-06 01:35:00,
2015-03-05 19:40:00,10.4,5.5,30.53,East,87,2.0,3.0,80,0.00,,,0.00,meteobridge,2015-03-06 01:40:00,
2015-03-05 19:46:00,10.0,5.4,30.53,ESE,115,0.9,3.0,81,0.00,,,0.00,meteobridge,2015-03-06 01:46:00,
2015-03-05 19:51:00,9.9,5.2,30.53,SE,138,0.9,2.0,81,0.00,,,0.00,meteobridge,2015-03-06 01:51:00,
2015-03-05 19:56:00,9.7,5.0,30.53,East,94,0.0,2.0,81,0.00,,,0.00,meteobridge,2015-03-06 01:56:00,
2015-03-05 20:01:00,9.7,5.0,30.53,ESE,118,0.0,3.0,81,0.00,,,0.00,meteobridge,2015-03-06 02:01:00,
2015-03-05 20:06:00,9.7,5.0,30.53,SSE,158,0.9,3.0,81,0.00,,,0.00,meteobridge,2015-03-06 02:06:00,
2015-03-05 20:11:00,9.9,5.0,30.53,SE,138,0.0,4.0,80,0.00,,,0.00,meteobridge,2015-03-06 02:11:00,
2015-03-05 20:16:00,9.9,5.0,30.52,ESE,117,2.0,6.0,80,0.00,,,0.00,meteobridge,2015-03-06 02:16:00,
2015-03-05 20:21:00,10.0,4.8,30.52,SE,140,2.0,3.0,79,0.00,,,0.00,meteobridge,2015-03-06 02:21:00,
2015-03-05 20:26:00,9.9,4.6,30.52,ENE,59,2.0,3.0,79,0.00,,,0.00,meteobridge,2015-03-06 02:26:00,
2015-03-05 20:31:00,9.9,4.6,30.52,East,90,2.0,4.0,79,0.00,,,0.00,meteobridge,2015-03-06 02:31:00,
2015-03-05 20:36:00,9.7,4.5,30.52,SE,131,2.0,5.0,79,0.00,,,0.00,meteobridge,2015-03-06 02:36:00,
2015-03-05 20:41:00,9.7,4.5,30.52,ESE,106,4.0,6.0,79,0.00,,,0.00,meteobridge,2015-03-06 02:41:00,
2015-03-05 20:46:00,9.7,4.5,30.51,SE,139,2.0,3.0,79,0.00,,,0.00,meteobridge,2015-03-06 02:46:00,
2015-03-05 20:51:00,9.7,4.5,30.51,ESE,111,2.0,7.0,79,0.00,,,0.00,meteobridge,2015-03-06 02:51:00,
2015-03-05 20:56:00,9.7,4.3,30.51,SSE,148,2.0,7.0,78,0.00,,,0.00,meteobridge,2015-03-06 02:56:00,
2015-03-05 21:01:00,9.3,3.9,30.51,SE,146,2.9,6.0,78,0.00,,,0.00,meteobridge,2015-03-06 03:01:00,
2015-03-05 21:06:00,9.0,3.6,30.50,East,90,6.0,6.0,78,0.00,,,0.00,meteobridge,2015-03-06 03:06:00,
2015-03-05 21:11:00,8.8,3.6,30.50,SE,125,2.9,4.0,79,0.00,,,0.00,meteobridge,2015-03-06 03:11:00,
2015-03-05 21:16:00,8.4,3.2,30.50,SE,126,2.9,5.0,79,0.00,,,0.00,meteobridge,2015-03-06 03:16:00,
2015-03-05 21:21:00,8.4,3.2,30.50,SSE,160,0.9,3.0,79,0.00,,,0.00,meteobridge,2015-03-06 03:21:00,
2015-03-05 21:26:00,8.2,3.4,30.50,SE,134,2.0,3.0,80,0.00,,,0.00,meteobridge,2015-03-06 03:26:00,
2015-03-05 21:31:00,8.1,3.2,30.50,SSE,165,2.0,3.0,80,0.00,,,0.00,meteobridge,2015-03-06 03:31:00,
2015-03-05 21:36:00,7.9,3.0,30.50,SSE,154,2.0,3.0,80,0.00,,,0.00,meteobridge,2015-03-06 03:36:00,
2015-03-05 21:42:00,7.9,3.0,30.49,ESE,106,2.0,5.0,80,0.00,,,0.00,meteobridge,2015-03-06 03:42:00,
2015-03-05 21:46:00,7.9,3.0,30.49,SE,131,0.9,4.0,80,0.00,,,0.00,meteobridge,2015-03-06 03:46:00,
2015-03-05 21:52:00,7.9,3.0,30.49,East,94,0.0,4.0,80,0.00,,,0.00,meteobridge,2015-03-06 03:52:00,
2015-03-05 21:57:00,7.7,2.8,30.49,ESE,113,2.0,5.0,80,0.00,,,0.00,meteobridge,2015-03-06 03:57:00,
2015-03-05 22:02:00,7.7,2.8,30.49,SSE,150,0.0,3.0,80,0.00,,,0.00,meteobridge,2015-03-06 04:02:00,
2015-03-05 22:07:00,7.9,3.0,30.49,ESE,105,2.0,3.0,80,0.00,,,0.00,meteobridge,2015-03-06 04:07:00,